Location: ????????
(52.2000°N, 54.4667°E)
Time: 05:55:11
(UTC+00:00)

Daily predictions for brighter satellites

Satellite Brightness Start Highest point End
(mag) Time Altitude Azimuth Time Altitude Azimuth Time Altitude Azimuth
Cosmos 2333 Rocket 4.1 00:18:54 21° SE 00:20:40 25° ESE 00:25:11 10° NE
Cosmos 2219 Rocket 4.1 00:24:37 18° SE 00:27:07 25° ESE 00:31:35 10° NE
Lacrosse 5 rocket 4.3 00:30:33 13° E 00:30:33 13° E 00:31:05 10° E
Cosmos 1867 4.3 00:43:47 49° ENE 00:43:47 49° ENE 00:47:58 10° NE
Cosmos 2233 Rocket 4.2 00:41:58 61° SE 00:42:39 65° E 00:48:48 10° NNE
SL-16 R/B 3.4 00:50:47 32° N 00:50:47 32° N 00:53:54 10° NNE
GEOS 3 Rocket 4.1 00:48:08 10° SE 00:52:25 58° SE 00:52:25 58° SE
Cosmos 2322 Rocket 3.2 00:57:07 37° N 00:57:07 37° N 01:00:33 10° NNE
Cosmos 2360 Rocket 2.5 00:56:30 58° NE 00:56:30 58° NE 01:01:02 10° NNE
USA 215 3.3 00:51:08 10° ENE 00:57:33 62° N 00:57:50 62° NNW
Cosmos 1937 Rocket 4.5 00:57:11 39° NNE 00:58:22 45° ENE 01:03:24 10° SE
FENGYUN 3A 3.8 01:01:27 10° NNE 01:06:12 69° NNE 01:06:12 69° NNE
Cosmos 1980 Rocket 4.0 01:12:52 18° N 01:12:52 18° N 01:15:13 10° NNE
ADEOS 3.6 01:16:17 10° NNE 01:21:32 75° ESE 01:24:47 24° S
Cosmos 2237 4.4 01:26:40 53° NNW 01:26:40 53° NNW 01:31:44 10° NNE
COSMO-SKYMED 1 3.6 01:24:07 10° SSE 01:26:47 37° SSE 01:26:47 37° SSE
Cosmos 2084 4.2 01:28:03 44° SSE 01:28:40 47° SE 01:32:52 10° NE
IRIDIUM 103 4.3 01:24:40 10° S 01:29:53 82° E 01:35:08 10° N
Cosmos 921 Rocket 4.2 01:26:03 10° S 01:30:01 40° ESE 01:33:59 10° NE
BREEZE-M DEB (TANK) 4.4 01:30:02 43° WSW 01:31:57 52° SSW 01:53:17 10° SE
Cosmos 990 Rocket 3.8 01:37:41 67° WSW 01:37:41 67° WSW 01:42:43 10° SSE
ERS-2 3.9 01:34:02 10° SSE 01:35:35 24° SSE 01:35:35 24° SSE
Cosmos 2369 Rocket 4.2 01:39:52 11° NNW 01:43:46 21° NNE 01:47:55 10° E
CZ-4B R/B 4.0 01:39:17 10° NNE 01:43:47 77° WNW 01:44:11 70° SW
Cosmos 1758 3.3 01:44:39 28° S 01:46:43 82° E 01:50:49 10° NNE
CZ-4B R/B 3.0 01:43:44 10° NNE 01:47:19 60° ESE 01:50:54 10° S
IRIDIUM 106 4.2 01:42:59 10° S 01:48:12 73° W 01:53:27 10° N
Cosmos 1726 2.1 01:48:26 76° NE 01:48:26 76° NE 01:51:58 10° NNE
Okean 1-7 Rocket 3.5 01:45:58 29° N 01:48:17 89° E 01:52:49 10° S
Cosmos 2278 Rocket 2.1 01:46:33 35° NNW 01:49:06 85° WSW 01:54:47 10° SSE
Cosmos 44 Rocket 3.3 01:48:30 51° NW 01:49:49 81° SW 01:55:02 10° SE
Cosmos 858 Rocket 4.4 01:49:43 35° NNW 01:51:58 81° WSW 01:57:12 10° SSE
MOS 1 Rocket 3.2 01:46:59 10° S 01:52:02 78° WSW 01:55:00 23° NNW
ATLAS 5 CENTAUR R/B 3.3 01:56:05 18° S 01:56:05 18° S 01:57:32 10° SSE
ALOS 3.6 01:50:36 10° N 01:52:55 26° NNW 01:52:55 26° NNW
Cosmos 1470 4.3 02:00:44 23° N 02:00:44 23° N 02:02:18 10° N
METEOR-M 4.2 01:54:32 10° N 01:59:43 51° WNW 02:01:50 32° WSW
Cosmos 2322 3.6 01:57:11 32° SW 01:59:53 66° NW 02:05:38 10° NNE
Nadezhda 4 Rocket 3.9 01:54:04 10° N 02:00:15 87° ENE 02:06:23 10° S
Cosmos 1703 3.9 01:56:52 12° N 02:00:21 54° ENE 02:04:10 10° SSE
Cosmos 1943 Rocket 3.6 01:56:57 12° NNW 02:01:42 33° NE 02:06:46 10° ESE
Cosmos 1626 Rocket 3.8 01:58:10 10° N 02:02:39 71° ENE 02:07:07 10° SSE
Cosmos 2237 Rocket 3.4 01:58:29 10° S 02:03:49 44° ESE 02:09:12 10° NE
Cosmos 1898 Rocket 3.6 02:02:52 43° WNW 02:03:53 49° WSW 02:08:50 10° S
Cosmos 2333 Rocket 2.1 02:00:59 24° SW 02:04:27 69° NW 02:10:09 10° NNE
Cosmos 1763 Rocket 3.4 02:00:23 10° SSW 02:05:34 86° ESE 02:10:51 10° NNE
Cosmos 2084 Rocket 4.4 02:04:19 28° NNW 02:06:04 43° NNE 02:10:20 10° ESE
Lacrosse 5 rocket 1.0 02:06:10 63° W 02:06:43 79° SSW 02:10:29 10° SE
Cosmos 1340 3.1 02:05:01 16° N 02:07:58 61° ENE 02:11:41 10° SSE
CZ-2C R/B 3.2 02:04:46 10° SE 02:09:52 58° ENE 02:15:07 10° N
CZ-2C R/B 4.3 02:06:22 10° N 02:07:46 15° NNW 02:07:46 15° NNW
Cosmos 841 Rocket 4.3 02:05:35 10° S 02:10:33 52° ESE 02:15:33 10° NNE
Cosmos 2219 Rocket 2.1 02:06:26 18° SW 02:10:36 69° NW 02:16:13 10° NNE
Meteor 1-31 Rocket 4.2 02:09:46 10° N 02:11:35 24° NNW 02:11:35 24° NNW
Cosmos 1455 Rocket 2.9 02:10:15 10° SSW 02:14:36 66° WNW 02:18:56 10° N
H-2A R/B 2.5 02:14:02 10° NNE 02:17:44 81° WNW 02:21:27 10° SSW
Cosmos 2297 4.3 02:14:02 12° NNW 02:19:19 55° NE 02:24:57 10° SE
Meteor 2-13 Rocket 4.4 02:17:18 10° NNW 02:23:25 66° W 02:29:30 10° S
Cosmos 1758 Rocket 4.5 02:19:38 10° N 02:24:03 51° ENE 02:28:25 10° SSE
COSMOS 2428 2.7 02:18:28 10° SW 02:24:08 66° NW 02:29:50 10° NNE
Cosmos 1328 4.0 02:20:17 10° N 02:24:15 72° ENE 02:28:10 10° SSE
Okean O Rocket 3.6 02:20:23 10° NNE 02:24:18 31° E 02:28:10 10° SSE
Cosmos 1867 4.2 02:24:29 29° WNW 02:26:29 38° NNW 02:31:37 10° NE
Cosmos 1400 Rocket 3.6 02:22:59 10° S 02:26:59 56° E 02:31:03 10° NNE
deb Chang Zheng 4 3.7 02:23:19 10° N 02:27:27 48° WNW 02:31:31 10° SW
SAR-Lupe-4 4.3 02:24:47 10° SSW 02:27:45 33° WSW 02:27:45 33° WSW
H-2A R/B 3.7 02:25:14 10° NNE 02:29:34 48° E 02:33:55 10° S
SJ-7 4.3 02:28:03 10° NNE 02:32:17 82° WNW 02:36:25 10° SSW
PSLV R/B 3.8 02:28:36 10° NNE 02:32:32 83° ESE 02:36:33 10° SSW
SL-16 R/B 3.6 02:32:39 18° NW 02:33:39 19° NNW 02:37:37 10° NNE
Cosmos 1980 3.9 02:30:36 10° SSW 02:36:14 77° ESE 02:41:55 10° NNE
Cosmos 468 Rocket 4.1 02:32:21 10° SW 02:37:30 54° WNW 02:42:44 10° NNE
Cosmos 2026 Rocket 4.1 02:31:12 10° N 02:37:33 81° E 02:43:56 10° SSE
Cosmos 1125 Rocket 4.0 02:33:01 10° NNW 02:38:18 60° ENE 02:43:33 10° SE
Cosmos 1689 Rocket 4.2 02:37:15 10° SSW 02:38:01 15° SW 02:38:01 15° SW
Cosmos 2360 Rocket 3.2 02:38:17 22° WNW 02:40:04 26° NW 02:44:46 10° NNE
Cosmos 2322 Rocket 3.6 02:38:57 18° NW 02:40:11 19° NNW 02:44:11 10° NNE
Cosmos 1937 Rocket 4.1 02:37:24 21° NW 02:40:14 35° WSW 02:44:57 10° SSW
USA 215 3.4 02:33:48 10° E 02:40:14 64° NNE 02:45:11 18° WNW
ATLAS CENTAUR R/B 4.2 02:39:18 10° SSE 02:41:48 17° ESE 02:44:17 10° ENE
Cosmos 1602 Rocket 3.5 02:38:00 10° NNW 02:42:25 66° W 02:46:50 10° S
Envisat 2.9 02:39:12 10° NNE 02:44:18 74° WNW 02:49:22 10° SSW
NOAA 6 4.1 02:39:09 10° NNE 02:44:23 84° ESE 02:49:35 10° SSW
CZ-4B DEB 4.3 02:39:17 10° NNE 02:44:54 83° ESE 02:50:28 10° SSW
Cosmos 1814 Rocket 4.2 02:40:27 10° SSW 02:45:33 74° ESE 02:50:42 10° NNE
Cosmos 372 Rocket 4.1 02:41:21 12° NNW 02:46:03 55° WSW 02:51:08 10° S
YAOGAN 6 2.8 02:49:40 10° N 02:53:14 48° WNW 02:56:49 10° SW
Cosmos 1953 2.6 02:50:03 10° SW 02:53:50 41° WNW 02:57:38 10° N
Cosmos 1300 3.7 02:51:05 10° S 02:54:46 50° E 02:58:29 10° NNE
Cosmos 1980 Rocket 4.2 02:55:27 10° NNW 02:57:20 11° N 02:59:12 10° NNE
NOSS 0 Rocket 3.9 02:51:49 10° SW 02:58:00 73° NW 03:04:13 10° NNE
Cosmos 1461 3.1 02:54:27 10° SW 02:59:11 71° NW 03:03:57 10° NE
Cosmos 1825 Rocket 3.7 02:55:51 10° N 03:00:21 83° E 03:04:49 10° SSE
Cosmos 1464 Rocket 4.4 02:57:19 10° SW 03:02:56 37° WNW 03:08:37 10° N
Meteor 1-16 Rocket 4.4 02:57:35 10° SSW 03:03:26 61° WNW 03:09:20 10° N
Cosmos 2084 4.0 03:04:38 12° W 03:08:17 40° NNW 03:12:28 10° NE
Cosmos 921 Rocket 3.8 03:04:44 10° WSW 03:08:25 28° NW 03:12:06 10° N
Cosmos 1908 3.6 03:05:54 10° SW 03:09:30 40° WNW 03:13:08 10° N
Cosmos 1315 Rocket 3.4 03:09:47 10° S 03:13:38 60° E 03:17:31 10° NNE
Cosmos 1408 4.3 03:10:41 10° N 03:13:58 33° ENE 03:17:14 10° SE
Meteor 1-11 4.3 03:10:19 10° NNW 03:15:48 57° W 03:21:15 10° S
Cosmos 1953 Rocket 3.6 03:16:34 10° N 03:20:56 89° E 03:25:15 10° S
Cosmos 1892 3.4 03:17:54 10° N 03:21:41 57° ENE 03:25:28 10° SSE
CZ-4B R/B 4.2 03:19:54 10° NNW 03:22:01 15° WNW 03:24:08 10° W
Cosmos 540 Rocket 3.7 03:18:34 10° SW 03:23:28 45° WNW 03:28:24 10° NNE
Cosmos 1726 4.0 03:23:01 11° WNW 03:23:59 12° WNW 03:25:27 10° NW
Cosmos 1092 Rocket 4.4 03:21:30 10° NNW 03:27:06 39° W 03:32:44 10° SSW
CZ-2C R/B 4.3 03:22:43 10° NNE 03:28:27 55° E 03:34:07 10° S
Cosmos 2369 Rocket 2.5 03:23:16 10° NNW 03:28:53 68° NE 03:34:27 10° SE
Cosmos 2150 Rocket 4.4 03:24:42 10° NW 03:29:45 46° WSW 03:34:52 10° S
DMSP B5D2-2 4.4 03:25:44 10° S 03:30:47 48° W 03:35:54 10° NNW
CZ-4B R/B 3.3 03:25:13 10° NNE 03:30:54 75° WNW 03:36:31 10° SSW
Cosmos 2278 Rocket 3.7 03:28:49 10° WNW 03:32:21 17° W 03:35:52 10° SW
PAYLOAD B 4.4 03:27:47 10° N 03:33:13 56° WNW 03:38:39 10° SW
H-2A R/B 3.9 03:29:13 10° NNE 03:34:10 37° E 03:39:08 10° SSE
SL-16 R/B 2.5 03:28:35 10° SSW 03:34:13 75° ESE 03:39:55 10° NNE
Lacrosse 4 Rocket 1.6 03:33:28 10° SSW 03:37:43 80° ESE 03:42:07 10° NE
Cosmos 1606 Rocket 3.5 03:34:18 10° SSW 03:38:37 72° WNW 03:42:57 10° N
Cosmos 1346 Rocket 3.5 03:36:31 10° NNW 03:40:06 33° W 03:43:40 10° SSW
Cosmos 2058 3.6 03:38:49 10° N 03:42:55 57° ENE 03:46:58 10° SSE
Cosmos 1340 4.5 03:41:08 10° NW 03:43:04 14° W 03:44:59 10° WSW
Cosmos 1939 Rocket 2.8 03:39:06 10° N 03:43:04 69° WNW 03:46:57 10° SSW
Cosmos 2279 Rocket 4.0 03:37:20 10° SSW 03:43:34 76° WNW 03:49:53 10° N
Lacrosse 5 rocket 3.0 03:42:45 10° W 03:45:16 17° SW 03:47:42 10° S
FengYun 1-2 T 4.3 03:39:41 10° NNE 03:45:19 67° WNW 03:50:55 10° SSW
Cosmos 2084 Rocket 4.1 03:41:28 10° WNW 03:45:36 43° SW 03:49:52 10° SSE
Cosmos 1943 Rocket 2.3 03:40:15 10° NW 03:45:51 63° WSW 03:51:27 10° SSE
